DECAYED
Showing default

TROPICS-06, 56444 (Decayed)

Orbit data source: Space-Track

TROPICS-06, 56444 was a payload satellite owned by MIT-LL (US) in LEO that was launched on Mon, 08 May 2023 UTC via an ELECTRON launch vehicle from the Rocket Lab Launch Complex (RLLC). Payload-class satellites include a variety of spacecraft equipped with specific instruments for various scientific and technological missions. These include communications satellites like Starlink; space stations such as the ISS; scientific satellites like the Hubble; Earth observation satellites from companies like Planet Labs, Umbra, and HawkEye 360; GPS; miniature CubeSats for education and research; and military/defense satellites.

Not visible in the next 10 days
Identifier
56444, 2023-062C
Orbit
Decayed
Country
Flag of USUS
Related business
Manufacturer
Blue Canyon
Mission
Decayed Amateur Earth Obs Sci
Bus & Motor
CUBESAT 3U, Unknown motor
Mass
4 kg wet, ~4 kg dry
Launch date (UTC)
2023-05-08 (3 years ago)
Launch vehicle
ELECTRON
Launch site
Rocket Lab Launch Complex (RLLC)
Object type
Payload
Rocket body
Debris
Shape & HBR
Box, 0.3 m
Radar Cross Section
0.035 m², Medium (>0.1 m² and < 1m²)

Expand to show TLE details & history
Last TLE update: 8 months ago

TLE from 8 months ago
0 TROPICS-06
1 56444U 23062C   25297.59162811  .06072005 -15412-5  19640-2 0  9995
2 56444  32.7147  10.1345 0003358  58.0693 302.0336 16.24980596138169
Epoch: 2025-10-24T14:11Z
TLE epoch observation values (Epoch: 2025-10-24T14:11:56.668Z)
Latitude
-0.00005°
Longitude
123.91399°
Altitude
203.505 km
Speed
7.788 km/s
True Right ascension
00h 40m 32s
True Declination
0° 00' 00"
Sunlit
Object was in full shadow at epoch
Visualization orbit readout
Latitude
Unknown
Longitude
Unknown
Altitude
Unknown
Speed
Unknown
Apparent Right ascension
Unknown
Apparent Declination
Unknown
Sunlit
N/A
Visualization observer readout
Local Sidereal Time
21:30:56
Azimuth
Unknown
Elevation
Unknown
Doppler factor
Unknown
Orbital elements
Apogee altitude
212.04 km
Perigee altitude
207.615 km
Semi-major axis
6,587.965 km
Eccentricity
0.00034
Inclination
32.7147°
RAAN
10.1345°
Arg. of periapsis
58.0693°
True anomaly
302.00097°
Mean anomaly
302.0336°
Eccentric anomaly
302.01729°
Mean motion
4.05897 °/min
Orbital period
88.69 mins
BSTAR
0.001964
Loading maneuver chart data...
Computing Atmospheric mass density...
Loading historical data...
Loading historical data...
Loading historical data...
Loading historical data...
Loading historical data...
Loading historical data...
Loading historical data...
Other satellites on launch #62 in the year 2023 (2023-05-08 UTC)

Documentation

Showing up to 5 results
|